User: anonymous   Login
Location: Chuathbaluk
(61.5726°N, 159.2454°W)
Time: 01:08:04
(UTC+00:00)
Language:

Max Valier Satellite - Orbit

View from above orbital plane
View from above orbital plane
View from above satellite
View from above satellite

Ground track
Ground track

The orbit data is extracted from the following two-line orbital elements,

1 42778U 17036P   21023.40128634  .00001006  00000-0  45458-4 0  9998
2 42778  97.2771  76.6355 0011098 335.0891  24.9809 15.23154019199207
Epoch (UTC): 23 January 2021 09:37:51
Eccentricity: 0.0011098
inclination: 97.2771°
perigee height: 489 km
apogee height: 504 km
right ascension of ascending node: 76.6355°
argument of perigee: 335.0891°
revolutions per day: 15.23154019
mean anomaly at epoch: 24.9809°
orbit number at epoch: 19920

The dashed part of the orbit path shows where the satellite is in the earth's shadow,  

DLR